Sign in Sign up

Set up your winter fantasy team now !
Pick your 15 athlete's combined from all winter sports and compete against the other users

Gangneung

Pos Pair Lane Name Born Nation Time
1 18 I Kjeld Nuis 1989 Netherlands 1:07.95
2 16 I Håvard Holmefjord Lorentzen 1992 Norway 1:07.99
3 15 O Tae-Yun Kim 1994 South Korea 1:08.22
4 13 I Joey Mantia 1986 USA 1:08.564
5 14 O Takuro Oda 1992 Japan 1:08.568
6 17 I Kai Verbij 1994 Netherlands 1:08.61
7 14 I Shani Davis 1982 USA 1:08.78
8 12 O Nico Ihle 1985 Germany 1:08.93
9 16 O Koen Verweij 1990 Netherlands 1:09.14
10 10 I Mitchell Whitmore 1989 USA 1:09.17
11 15 I Alexandre St-Jean 1993 Canada 1:09.24
12 5 I Min-Kyu Cha 1993 South Korea 1:09.27
13 9 I Jae-Woong Chung 1999 South Korea 1:09.43
14 13 O Joel Dufter 1995 Germany 1:09.46
15 10 O Haralds Silovs 1986 Latvia 1:09.50
16 18 O Mika Poutala 1983 Finland 1:09.58
17 9 O Sebastian Kłosiński 1992 Poland 1:09.59
18 7 O Marten Liiv 1996 Estonia 1:09.75
19 17 O Vincent De Haitre 1994 Canada 1:09.79
20 4 I Tsubasa Hasegawa 1994 Japan 1:09.83
21 4 O Konrád Nagy 1992 Hungary 1:09.92
22 11 O Daniel Greig 1991 Australia 1:09.99
23 12 I Konrad Niedźwiedzki 1985 Poland 1:10.026
24 6 O Daichi Yamanaka 1990 Japan 1:10.027
25 3 O Laurent Dubreuil 1992 Canada 1:10.03
26 2 O Tao Yang 1997 China 1:10.10
27 7 I Denis Kuzin 1988 Kazakhstan 1:10.13
28 11 I Ignat Golovatsiuk 1997 Belarus 1:10.141
29 8 O Stanislav Palkin 1996 Kazakhstan 1:10.149
30 3 I Mirko Giacomo Nenzi 1989 Italy 1:10.16
31 8 I Piotr Michalski 1994 Poland 1:10.17
32 1 O Henrik Fagerli Rukke 1996 Norway 1:10.25
33 5 O Fyodor Mezentsev 1989 Kazakhstan 1:10.62
34 6 I Pedro Causil 1991 Colombia 1:10.71
35 1 I Mathias Vosté 1994 Belgium 1:11.24
36 2 I Pekka Koskela 1982 Finland 1:11.76

Info

What Olympic Winter Games 2018
Discipline 1.000
Host Gangneung
Nation South Korea
Date Friday 23.Feb 2018
Calendar 2017/2018
Air Temp 16.5 C
Ice Temp -9.3 C
Humidity 29.0 %